Regional Weather Roundup
Issued by NWS Boston, MA

Home | Current Version | Previous Version | Text Only | Print | Product List | Glossary On
Versions: 1 2 3 4 5 6 7 8 9 10 11 12 13 14 15 16 17 18 19 20 21 22 23 24 25 26 27 28 29 30 31 32 33 34 35 36 37 38 39 40 41 42 43 44 45 46 47 48 49 50
000
ASUS41 KBOX 260810
RWRBOX

REGIONAL WEATHER ROUNDUP
NATIONAL WEATHER SERVICE TAUNTON MA
400 AM EDT TUE MAY 26 2015

NOTE:  "FAIR" INDICATES FEW OR NO CLOUDS BELOW 12,000 FEET WITH NO
SIGNIFICANT WEATHER AND/OR OBSTRUCTIONS TO VISIBILITY.  THE FOLLOWING
OBSERVATION LOCATIONS DO NOT REPORT PRESENT WEATHER...PROVINCETOWN...
SMITHFIELD...BLOCK ISLAND...KEENE...AND OXFORD.

MAZALL-260900-
EASTERN MASSACHUSETTS

CITY           SKY/WX    TMP DP  RH WIND       PRES   REMARKS
BOSTON         MOCLDY    66  54  65 SW18      30.12F
BEVERLY        MOCLDY    68  54  60 SW12      30.10F
LAWRENCE       CLOUDY    68  56  65 SW10      30.11F
BEDFORD        MOCLDY    66  55  67 SW14      30.10F
BLUE HILL        N/A     62  53  72 S22G30    30.13F
NORWOOD        PTCLDY    66  54  65 S9        30.13F
MARSHFIELD     MOCLDY    66  52  59 SW14G24   30.15F
PLYMOUTH       PTCLDY    63  53  70 SW16G26   30.18S
TAUNTON        PTCLDY    63  53  70 SW9       30.17S
NEW BEDFORD    PTCLDY    61  55  81 SW16G25   30.19S
$$

MAZALL-260900-
CAPE COD AND THE ISLANDS

CITY           SKY/WX    TMP DP  RH WIND       PRES   REMARKS
FALMOUTH       MOCLDY    59  55  88 SW17G24   30.21S
HYANNIS        CLOUDY    62  56  80 SW17      30.20S
CHATHAM        CLOUDY    60  57  89 SW10G21   30.23R
PROVINCETOWN   CLOUDY    59  52  77 SW17G25   30.18R
NANTUCKET      MOCLDY    59  56  89 SW18      30.23F
MARTHAS VNYRD  MOCLDY    59  56  89 SW17G25   30.22S
$$

MAZALL-260900-
CENTRAL AND WESTERN MASSACHUSETTS

CITY           SKY/WX    TMP DP  RH WIND       PRES   REMARKS
WORCESTER      MOCLDY    63  55  75 SW18      30.14F
FITCHBURG      MOCLDY    69  56  62 VRB5G18   30.11S
ORANGE         MOCLDY    64  56  75 S8        30.12S
SPRINGFIELD    MOCLDY    66  57  73 S14       30.12S
WESTFIELD      MOCLDY    65  56  72 S9        30.13R
NORTH ADAMS    MOCLDY    72  57  59 VRB7      30.11R
PITTSFIELD     CLOUDY    68  57  68 MISG      30.13S
$$

RIZALL-260900-
RHODE ISLAND

CITY           SKY/WX    TMP DP  RH WIND       PRES   REMARKS
PROVIDENCE     CLEAR     64  52  64 S12       30.19S
NEWPORT        PTCLDY    58  54  86 SW9G18    30.20F
BLOCK ISLAND   CLEAR     57  52  82 SW17      30.22S
SMITHFIELD     CLEAR     63  46  55 S6        30.17S
WESTERLY       CLEAR     57  53  86 S6        30.22S
$$

CTZALL-260900-
CONNECTICUT

CITY           SKY/WX    TMP DP  RH WIND       PRES   REMARKS
BRADLEY INTL   MOCLDY    65  56  72 S10       30.14S
HARTFORD       PTCLDY    65  53  65 S12       30.16S
BRIDGEPORT     CLEAR     62  53  72 S8        30.18S
DANBURY        CLEAR     66  54  65 SW7       30.18S
GROTON         CLEAR     59  53  80 SW9       30.20F
NEW HAVEN      CLEAR     60  53  77 S8        30.19S
CHESTER        FAIR      61  55  82 S7        30.20S
MERIDEN        MOCLDY    63  52  67 S7        30.18S
WILLIMANTIC    PTCLDY    65  51  60 S8        30.18S
OXFORD         CLEAR     61  54  77 S5        30.21R
$$

MEZ002-015-021-024-NHZ003-005-008-011-012-014-VTZ005-008-260900-
NORTHERN NEW ENGLAND

CITY           SKY/WX    TMP DP  RH WIND       PRES   REMARKS
PORTLAND ME    LGT RAIN  59  56  89 S6        30.06F
BANGOR ME      LGT RAIN  56  55  97 S10       30.04F FOG
CONCORD NH     CLOUDY    64  61  90 S9        30.07F
MANCHESTER NH  CLOUDY    67  58  72 S7        30.07S
NASHUA NH      CLOUDY    67  59  75 CALM      30.10S
PORTSMOUTH NH  CLOUDY    68  57  67 SW9       30.06F
JAFFREY NH     MOCLDY    64  56  75 SW8       30.12F
KEENE NH       MOCLDY   N/A N/A N/A S8        30.11R
BURLINGTON VT  CLOUDY    70  59  68 S9        29.99R
MT. WASHINGTON FOG       48  48 100 W55G62      N/A  VSB 0
$$

NYZ052-076-260900-
EASTERN NEW YORK

CITY           SKY/WX    TMP DP  RH WIND       PRES   REMARKS
ALBANY         PTCLDY    72  58  61 S8        30.08R
NEW YORK CITY  PTCLDY    68  52  56 SW12      30.18S
$$

ANZALL-260900-
MARINE OBSERVATIONS

STATION/POSITION TIME  TEMP    WIND        PRES    VSBY  WAVE
                       AIR SEA DIR/SP/G                  HT/PER
                 (UTC) (F)     (DEG/KT/KT) (MB)    (MI)  (FT/S)
BOSTON BUOY      0750   60 53  210/ 14/ 16   N/A           2/ 3
BUZZARDS BAY     0800          240/ 21/ 22   N/A
NANTUCKET SOUND  0750   61 58  220/ 21/ 23   N/A           2/ 3
MASS BAY-STELLWA 0704   56 52  190/ 10/ 10   N/A    1 7/8  2/ 5
ISLE OF SHOALS   0800   61     190/ 22/ 23   N/A
S OF BLOCK IS    0708      54                N/A           5/ 6
$$

......................KEY.........................
  SKY/WX - SKY CONDITION/PRESENT WEATHER
  TMP    - TEMPERATURE IN FAHRENHEIT
  DWPT   - DEWPOINT IN FAHRENHEIT
  RH     - RELATIVE HUMIDITY IN PERCENT
  WIND   - DIRECTION AND SPEED IN MPH
  PRES   - MEAN SEA LEVEL PRESSURE IN INCHES OF HG
  WCI    - WIND CHILL INDEX
  VSB    - VISIBILITY IN MILES
  HX     - HEAT INDEX
  TC     - TEMPERATURE IN CELSIUS
  VRB    - VARIABLE WIND DIRECTION
  N/A    - NOT AVAILABLE



USA.gov is the U.S. government's official web portal to all federal, state and local government web resources and services.